Regional Weather Roundup
Issued by NWS

Home | Current Version | Previous Version | Text Only | Print | Product List | Glossary Off
Versions: 1 2 3 4 5 6 7 8 9 10 11 12 13 14 15 16 17 18 19 20 21 22 23 24 25 26 27 28 29 30 31 32 33 34 35 36 37 38 39 40 41 42 43 44 45 46 47 48 49 50

000
ASUS43 KLMK 031102
RWRKY
KENTUCKY REGIONAL WEATHER ROUNDUP
NATIONAL WEATHER SERVICE LOUISVILLE KY
600 AM EST SAT DEC 03 2016

NOTE "FAIR" INDICATES FEW OR NO CLOUDS BELOW 12,000 FEET
WITH NO SIGNIFICANT WEATHER AND/OR OBSTRUCTIONS TO VISIBILITY.

KYZ001>023-026-027-061>063-070>075-031200-
WESTERN AND SOUTH CENTRAL KENTUCKY

CITY           SKY/WX    TMP DP  RH WIND       PRES   REMARKS
PADUCAH        CLOUDY    33  29  85 CALM      30.35F
HENDERSON      CLOUDY    27  21  80 CALM      30.36F
OWENSBORO      CLOUDY    29  28  96 CALM      30.37R
HOPKINSVILLE   CLEAR     34  31  88 NE5       30.34S WCI  30
BOWLING GREEN  CLOUDY    31  29  92 CALM      30.35S
GLASGOW        PTCLDY    31  31 100 CALM      30.34S
$$

KYZ024-025-028>034-038-045-046-053-031200-
NORTH CENTRAL KENTUCKY

CITY           SKY/WX    TMP DP  RH WIND       PRES   REMARKS
LOUISVILLE/SDF CLOUDY    41  30  65 NW6       30.36R
LOUISVILLE/LOU CLOUDY    41  31  67 NW3       30.36R
FORT KNOX      CLOUDY    38  31  76 NW5       30.33R WCI  34
$$

KYZ035>037-039>044-047>052-055>060-089>105-031200-
NORTHEAST KENTUCKY

CITY           SKY/WX    TMP DP  RH WIND       PRES   REMARKS
LEXINGTON      CLOUDY    38  31  76 NW3       30.34R
COVINGTON      CLOUDY    36  34  92 SW3       30.33S
FRANKFORT      CLOUDY    39  31  72 CALM      30.33R
$$

KYZ054-064>069-076>088-106>120-031200-
SOUTHEAST KENTUCKY

CITY           SKY/WX    TMP DP  RH WIND       PRES   REMARKS
JACKSON        CLOUDY    36  30  79 CALM      30.31S
LONDON         CLOUDY    33  28  81 CALM      30.31S
SOMERSET       MOCLDY    30  30 100 CALM      30.34F
MIDDLESBORO    NOT AVBL
MONTICELLO     CLOUDY    28  27  96 VRB7      30.35S WCI  21
$$





USA.gov is the U.S. government's official web portal to all federal, state and local government web resources and services.